Kezdőlap
METAR-TAF:

METAR-TAF

Repülőterek :

Pittsfield Penstone Municipal Airport

Pittsfield, Illinois, Amerikai Egyesült Államok

földrajzi szélesség: 39-38-20N, földrajzi hosszúság: 090-46-42W, magasság: 216 m

Jelenlegi meteorológiai megfigyelések

A jelentés 22 perccel ezelõtt készült, 07:35 UTC
Keleti szél 3 kt
Hőmérséklet 24°C
Páratartalom 100%
Légköri nyomás 1015 hPa
Látótávolság: 8.0 km
Szórványos felhőzet 7000 lábon
Szórványos felhőzet 9000 lábon

METAR: KPPQ 070735Z AUTO 08003KT 5SM SCT070 SCT090 24/24 A2996 RMK AO2 LTG DSNT SE W AND NW T02410241

Idő: 02:57 (07:57 UTC)


TAF: hiányzik

Meteorológiai megfigyelések és előrejelzések több, mint 4000 repülőtéren (METAR és TAF jelentéseket).

A térképen piros és sárga pontok jelzik az elérhető meteorológiai állomásokat.

Mozgassa az egeret a pont fölött, hogy megjelenjen az állomás neve.

Azután kattintson az időjárási megfigyelések és előrejelzések megtekintéséhez.

A térkép megváltoztatása: kattintson a fekete keresztel jelölt zöld gombra ráközelítéshez, a vonallal jelölt zöld gombra távolításhoz, vagy a zöld nyilakra a szomszédos térképek eléréséhez.


METAR-TAF: